Location: Hokitika
(42.7170°S, 170.9670°E)
Time: 03:05:58
(UTC+12:00)

Cosmos 1862 - Pass Details

Date: 24 January 2019
Orbit: 538 x 558 km, 82.5° (Epoch: 19 April)

Event Time Altitude Azimuth Distance (km) Brightness Sun altitude
Rises 22:17:20 0° 187° (S) 2,759 7.7 -11.4°
Reaches altitude 10° 22:19:32 10° 184° (S) 1,853 6.7 -11.7°
Maximum altitude 22:23:36 72° 99° (E) 586 3.3 -12.2°
Enters shadow 22:26:51 15° 15° (NNE) 1,516 5.1 -12.7°
